Home   Weather   Faro   Past weeks

Flag for Portugal Past Weather in Faro, Portugal — Yesterday and Last 2 Weeks

Now
68 °F

Passing clouds.


Feels Like: 68 °F
Forecast: 62 / 81 °F
Wind: 3 mph from Northeast

Location: Faro / Aeroporto

Current Time: Sep 25, 2016 at 6:31:22 AM

Latest Report: Sep 25, 2016 at 6:00 AM


Visibility: N/A

Pressure: 30.07 "Hg

Humidity: 73%

Dew Point: 59 °F

Location of FaroLocation

Past Weather in Faro — Graph

°F

Faro Temperature Yesterday

Maximum temperature yesterday: 75 °F (at 12:00 PM)
Minimum temperature yesterday: 61 °F (at 4:00 AM)
Average temperature yesterday: 70 °F

High & Low Weather Summary for the Past Weeks

 TemperatureHumidityPressure
High84 °F (Sep 10, 12:30 PM)100% (Sep 13, 4:30 AM)30.21 "Hg (Sep 13, 4:30 AM)
Low59 °F (Sep 15, 7:00 AM)29% (Sep 17, 11:00 AM)29.89 "Hg (Sep 12, 3:00 AM)
Average70 °F70%30.04 "Hg
* Reported Sep 10 5:00 AM — Sep 25 5:30 AM, Faro, Weather by CustomWeather, © 2016

Note: Actual official high and low records may vary slightly from our data, if they occured in-between our weather recording intervals... More about our weather records

Advertising

Faro Weather History for the Previous 24 Hours

Scroll right to see more
 ConditionsComfort  
Time TempWeatherWind HumidityBarometerVisibility
5:30 AM
Sun, Sep 25
68 °FPassing clouds.5 mph73%30.07 "HgN/A
5:00 AM68 °FClear.7 mph78%30.07 "Hg10 mi
4:30 AM68 °FClear.6 mph73%30.07 "Hg10 mi
4:00 AM68 °FClear.5 mph73%30.09 "Hg10 mi
3:30 AM70 °FClear.3 mph69%30.09 "Hg10 mi
3:00 AM70 °FPassing clouds.7 mph64%30.09 "HgN/A
2:30 AM70 °FClear.9 mph64%30.09 "Hg10 mi
2:00 AM72 °FClear.8 mph61%30.09 "Hg10 mi
1:30 AM72 °FPassing clouds.9 mph61%30.09 "HgN/A
1:00 AM72 °FClear.12 mph65%30.09 "Hg10 mi
12:30 AM72 °FClear.13 mph65%30.09 "Hg10 mi
12:00 AM70 °FClear.12 mph64%30.09 "Hg10 mi
11:30 PM
Sat, Sep 24
72 °FClear.13 mph61%30.09 "Hg10 mi
11:00 PM72 °FClear.14 mph57%30.09 "Hg10 mi
10:30 PM72 °FClear.13 mph57%30.09 "Hg10 mi
10:00 PM72 °FClear.13 mph57%30.09 "Hg10 mi
9:30 PM72 °FClear.12 mph57%30.09 "Hg10 mi
9:00 PM72 °FClear.8 mph61%30.09 "Hg10 mi
8:30 PM72 °FClear.8 mph61%30.09 "Hg10 mi
8:00 PM73 °FClear.9 mph57%30.09 "Hg10 mi
7:30 PM73 °FClear.10 mph61%30.09 "Hg10 mi
7:00 PM73 °FSunny.13 mph61%30.09 "Hg10 mi
6:30 PM73 °FSunny.12 mph69%30.09 "Hg10 mi
6:00 PM73 °FSunny.10 mph65%30.09 "Hg10 mi
5:30 PM73 °FSunny.12 mph69%30.09 "Hg10 mi
5:00 PM75 °FPassing clouds.9 mph69%30.09 "HgN/A
4:30 PM73 °FPassing clouds.7 mph65%30.09 "HgN/A
4:00 PM73 °FPassing clouds.9 mph69%30.09 "HgN/A
3:30 PM75 °FSunny.7 mph57%30.09 "Hg10 mi
3:00 PM75 °FPassing clouds.7 mph57%30.09 "HgN/A
2:30 PM75 °FSunny.8 mph57%30.12 "Hg10 mi
2:00 PM75 °FPassing clouds.7 mph57%30.12 "HgN/A
1:30 PM75 °FSunny.7 mph57%30.12 "Hg10 mi
1:00 PM75 °FPassing clouds.7 mph61%30.12 "HgN/A
12:30 PM73 °FSunny.6 mph69%30.12 "Hg10 mi
12:00 PM75 °FSunny.6 mph65%30.12 "Hg10 mi
11:30 AM72 °FSunny.6 mph78%30.15 "Hg10 mi
11:00 AM72 °FPassing clouds.6 mph78%30.15 "HgN/A
10:30 AM73 °FSunny.6 mph69%30.15 "Hg10 mi
10:00 AM73 °FPassing clouds.3 mph65%30.15 "HgN/A
9:30 AM72 °FPassing clouds.3 mph65%30.12 "HgN/A
9:00 AM72 °FPassing clouds.5 mph65%30.12 "HgN/A
8:30 AM68 °FSunny.6 mph69%30.12 "Hg10 mi
8:00 AM64 °FSunny.7 mph73%30.12 "Hg10 mi
7:30 AM61 °FSunny.3 mph83%30.12 "Hg10 mi
7:00 AM61 °FClear.6 mph83%30.09 "Hg10 mi
6:30 AM63 °FClear.6 mph77%30.09 "Hg10 mi
6:00 AM64 °FClear.6 mph73%30.09 "Hg10 mi
Weather by CustomWeather, © 2016

See weather overviewHow to use our weather pages